This demonstration page uses our WeatherBlox Daily Observations layout. Learn more.

Left ArrowRight Arrow

40.92501, -98.34201

Hourly Observations for February 14, 2022

Temp ( °F °C ) Dew Point ( °F °C ) Humidity (%) Winds ( mph kmh ) Pressure ( in mb ) Visibility ( mi km ) Precip ( " mm )
12:53 am 00:53 Clear 29 -1.7 14 -10 54 54 WNW 9 15 30.18 1022 10 16 0.00 0.00
1:53 am 01:53 Clear 30 -1.1 16 -8.9 56 56 WNW 9 15 30.19 1022 10 16 0.00 0.00
2:53 am 02:53 Clear 31 -0.6 17 -8.3 56 56 WNW 10 17 30.20 1023 10 16 0.00 0.00
3:53 am 03:53 Clear 29 -1.7 17 -8.3 61 61 NW 10 17 30.20 1023 10 16 0.00 0.00
4:53 am 04:53 Clear 32 0 19 -7.2 59 59 NNW 13 20 30.24 1024 10 16 0.00 0.00
5:53 am 05:53 Clear 27 -2.8 18 -7.8 69 69 NW 5 7 30.27 1025 10 16 0.00 0.00
6:53 am 06:53 Clear 26 -3.3 17 -8.3 69 69 N 7 11 30.29 1026 10 16 0.00 0.00
7:53 am 07:53 Sunny 22 -5.6 15 -9.4 75 75 WNW 3 6 30.32 1027 10 16 0.00 0.00
8:53 am 08:53 Sunny 32 0 20 -6.7 61 61 NW 7 11 30.32 1027 10 16 0.00 0.00
9:53 am 09:53 Sunny 37 2.8 20 -6.7 50 50 N 12 19 30.33 1027 10 16 0.00 0.00
10:53 am 10:53 Sunny 39 3.9 19 -7.2 45 45 NNE 9 15 30.34 1028 10 16 0.00 0.00
11:53 am 11:53 Sunny 42 5.6 15 -9.4 33 33 N 10 17 30.33 1027 10 16 0.00 0.00
12:53 pm 12:53 Sunny 42 5.6 15 -9.4 33 33 VRB 5 7 30.30 1026 10 16 0.00 0.00
1:53 pm 13:53 Sunny 43 6.1 14 -10 31 31 NNE 7 11 30.26 1025 10 16 0.00 0.00
2:53 pm 14:53 Sunny 43 6.1 14 -10 31 31 VRB 6 9 30.24 1024 10 16 0.00 0.00
3:53 pm 15:53 Sunny 45 7.2 12 -11.1 26 26 ESE 9 15 30.21 1023 10 16 0.00 0.00
4:53 pm 16:53 Sunny 45 7.2 13 -10.6 27 27 SSE 9 15 30.20 1023 10 16 0.00 0.00
5:53 pm 17:53 Sunny 41 5 12 -11.1 30 30 SE 8 13 30.19 1022 10 16 0.00 0.00
6:53 pm 18:53 Clear 33 0.6 11 -11.7 40 40 ESE 8 13 30.20 1023 10 16 0.00 0.00
7:53 pm 19:53 Clear 34 1.1 11 -11.7 38 38 SE 10 17 30.19 1022 10 16 0.00 0.00
8:53 pm 20:53 Clear 32 0 11 -11.7 41 41 ESE 10 17 30.18 1022 10 16 0.00 0.00
9:53 pm 21:53 Clear 29 -1.7 10 -12.2 45 45 ESE 7 11 30.19 1022 10 16 0.00 0.00
10:53 pm 22:53 Clear 28 -2.2 10 -12.2 47 47 SE 9 15 30.17 1022 10 16 0.00 0.00
11:53 pm 23:53 Clear 29 -1.7 11 -11.7 47 47 SE 12 19 30.14 1021 10 16 0.00 0.00

Powered by AerisWeather